When you browse on this site, cookies collect data to enhance your experience and personalize the content and advertising you see.
Visit our Privacy Policy to learn more. By continuing to use the site, you agree to this use of cookies and data.
  • In Austria
  • List of Countries
  • For 7 days
  • Water Temperature
  • Weather Map
  • News
  • Weather Widgets
  • user-avatar
    Login

    Hourly Weather Znamenka

    Today, 3 June, Wednesday

    Time Temperature Precipitation Wind Pressure Humidity
    00:00 +7°C° 0 mm 3 mps 741 mmHg 96%
    01:00 +7°C° 0 mm 3 mps 741 mmHg 97%
    02:00 +7°C° 0 mm 3 mps 742 mmHg 98%
    03:00 +7°C° 0 mm 3 mps 741 mmHg 98%
    04:00 +7°C° 0 mm 3 mps 741 mmHg 97%
    05:00 +7°C° 0 mm 3 mps 741 mmHg 97%
    06:00 +7°C° 0.1 mm 3 mps 741 mmHg 95%
    07:00 +8°C° 0.1 mm 3 mps 741 mmHg 94%
    08:00 +9°C° 0.1 mm 3 mps 741 mmHg 92%
    09:00 +9°C° 0.5 mm 3 mps 741 mmHg 90%
    10:00 +10°C° 0.5 mm 4 mps 741 mmHg 88%
    11:00 +11°C° 0.5 mm 4 mps 741 mmHg 86%
    12:00 +12°C° 0.4 mm 4 mps 741 mmHg 81%
    13:00 +13°C° 0.4 mm 4 mps 741 mmHg 77%
    14:00 +14°C° 0.4 mm 3 mps 741 mmHg 72%
    15:00 +14°C° 0.5 mm 3 mps 741 mmHg 73%
    16:00 +14°C° 0.5 mm 3 mps 740 mmHg 73%
    17:00 +14°C° 0.5 mm 3 mps 740 mmHg 74%
    18:00 +13°C° 0.3 mm 3 mps 740 mmHg 80%
    19:00 +11°C° 0.3 mm 3 mps 740 mmHg 85%
    20:00 +10°C° 0.3 mm 2 mps 740 mmHg 91%
    21:00 +9°C° 0 mm 2 mps 740 mmHg 93%
    22:00 +8°C° 0 mm 2 mps 740 mmHg 95%
    23:00 +7°C° 0 mm 2 mps 740 mmHg 96%

    Tomorrow, 4 June, Thursday

    Time Temperature Precipitation Wind Pressure Humidity
    00:00 +7°C° 0 mm 2 mps 740 mmHg 96%
    01:00 +7°C° 0 mm 2 mps 740 mmHg 96%
    02:00 +6°C° 0 mm 2 mps 740 mmHg 97%
    03:00 +6°C° 0 mm 2 mps 740 mmHg 97%
    04:00 +6°C° 0 mm 2 mps 740 mmHg 97%
    05:00 +6°C° 0 mm 2 mps 740 mmHg 98%
    06:00 +8°C° 0 mm 2 mps 740 mmHg 94%
    07:00 +10°C° 0 mm 2 mps 740 mmHg 90%
    08:00 +12°C° 0 mm 2 mps 740 mmHg 86%
    09:00 +12°C° 0.4 mm 3 mps 740 mmHg 84%
    10:00 +13°C° 0.4 mm 3 mps 740 mmHg 82%
    11:00 +13°C° 0.4 mm 3 mps 740 mmHg 80%
    12:00 +14°C° 0.6 mm 4 mps 740 mmHg 78%
    13:00 +15°C° 0.6 mm 4 mps 739 mmHg 76%
    14:00 +15°C° 0.6 mm 5 mps 739 mmHg 74%
    15:00 +15°C° 0.6 mm 4 mps 739 mmHg 75%
    16:00 +15°C° 0.6 mm 4 mps 739 mmHg 77%
    17:00 +15°C° 0.6 mm 4 mps 739 mmHg 78%
    18:00 +14°C° 0.2 mm 3 mps 739 mmHg 83%
    19:00 +13°C° 0.2 mm 3 mps 739 mmHg 87%
    20:00 +13°C° 0.2 mm 2 mps 739 mmHg 91%
    21:00 +12°C° 0.1 mm 2 mps 739 mmHg 92%
    22:00 +10°C° 0.1 mm 2 mps 739 mmHg 93%
    23:00 +10°C° 0.1 mm 2 mps 740 mmHg 95%

    Day after tomorrow, 5 June, Friday

    Time Temperature Precipitation Wind Pressure Humidity
    00:00 +9°C° 0 mm 2 mps 739 mmHg 95%
    01:00 +9°C° 0 mm 2 mps 739 mmHg 95%
    02:00 +9°C° 0 mm 2 mps 739 mmHg 96%
    03:00 +9°C° 0 mm 2 mps 739 mmHg 96%
    04:00 +9°C° 0 mm 2 mps 739 mmHg 96%
    05:00 +9°C° 0 mm 2 mps 739 mmHg 96%
    06:00 +12°C° 0 mm 2 mps 739 mmHg 93%
    07:00 +14°C° 0 mm 2 mps 739 mmHg 90%
    08:00 +16°C° 0 mm 3 mps 740 mmHg 87%
    09:00 +17°C° 0.2 mm 3 mps 740 mmHg 86%
    10:00 +18°C° 0.2 mm 4 mps 740 mmHg 86%
    11:00 +17°C° 0.2 mm 5 mps 740 mmHg 85%
    12:00 +18°C° 0.1 mm 4 mps 740 mmHg 87%
    13:00 +17°C° 0.1 mm 4 mps 740 mmHg 88%
    14:00 +17°C° 0.1 mm 4 mps 740 mmHg 90%
    15:00 +18°C° 0 mm 4 mps 740 mmHg 84%
    16:00 +20°C° 0 mm 4 mps 740 mmHg 79%
    17:00 +21°C° 0 mm 4 mps 740 mmHg 73%
    18:00 +20°C° 0.1 mm 4 mps 740 mmHg 78%
    19:00 +19°C° 0.1 mm 3 mps 740 mmHg 82%
    20:00 +19°C° 0.1 mm 3 mps 740 mmHg 87%
    21:00 +18°C° 0.2 mm 3 mps 740 mmHg 89%
    22:00 +17°C° 0.2 mm 3 mps 741 mmHg 92%
    23:00 +16°C° 0.2 mm 3 mps 741 mmHg 95%

    6 June, Saturday

    Time Temperature Precipitation Wind Pressure Humidity
    00:00 +16°C° 0.1 mm 3 mps 741 mmHg 95%
    01:00 +16°C° 0.1 mm 3 mps 741 mmHg 96%
    02:00 +16°C° 0.1 mm 3 mps 741 mmHg 96%
    03:00 +16°C° 0 mm 3 mps 741 mmHg 95%
    04:00 +16°C° 0 mm 3 mps 741 mmHg 95%
    05:00 +16°C° 0 mm 3 mps 741 mmHg 94%
    06:00 +17°C° 0 mm 3 mps 741 mmHg 89%
    07:00 +18°C° 0 mm 4 mps 742 mmHg 85%
    08:00 +19°C° 0 mm 4 mps 742 mmHg 81%
    09:00 +20°C° 0 mm 4 mps 743 mmHg 77%
    10:00 +21°C° 0 mm 4 mps 743 mmHg 73%
    11:00 +22°C° 0 mm 4 mps 744 mmHg 69%
    12:00 +22°C° 0.3 mm 4 mps 744 mmHg 69%
    13:00 +23°C° 0.3 mm 4 mps 745 mmHg 69%
    14:00 +23°C° 0.3 mm 4 mps 745 mmHg 68%
    15:00 +23°C° 0.2 mm 4 mps 745 mmHg 67%
    16:00 +24°C° 0.2 mm 3 mps 746 mmHg 66%
    17:00 +24°C° 0.2 mm 3 mps 746 mmHg 66%
    18:00 +21°C° 0 mm 2 mps 746 mmHg 72%
    19:00 +20°C° 0 mm 2 mps 747 mmHg 78%
    20:00 +19°C° 0 mm 1 mps 747 mmHg 84%
    21:00 +18°C° 0 mm 1 mps 747 mmHg 85%
    22:00 +16°C° 0 mm 1 mps 748 mmHg 87%
    23:00 +14°C° 0 mm 0 mps 748 mmHg 89%

    7 June, Sunday

    Time Temperature Precipitation Wind Pressure Humidity
    00:00 +15°C° 0 mm 1 mps 748 mmHg 89%
    01:00 +14°C° 0 mm 1 mps 748 mmHg 89%
    02:00 +14°C° 0 mm 1 mps 748 mmHg 89%
    03:00 +14°C° 0 mm 1 mps 749 mmHg 90%
    04:00 +14°C° 0 mm 2 mps 749 mmHg 91%
    05:00 +15°C° 0 mm 2 mps 749 mmHg 92%
    06:00 +17°C° 0 mm 2 mps 749 mmHg 88%
    07:00 +19°C° 0 mm 3 mps 749 mmHg 84%
    08:00 +21°C° 0 mm 3 mps 749 mmHg 80%
    09:00 +22°C° 0.4 mm 3 mps 748 mmHg 77%
    10:00 +24°C° 0.4 mm 3 mps 748 mmHg 75%
    11:00 +26°C° 0.4 mm 3 mps 748 mmHg 73%
    12:00 +25°C° 1.5 mm 3 mps 748 mmHg 74%
    13:00 +25°C° 1.5 mm 3 mps 747 mmHg 75%
    14:00 +25°C° 1.5 mm 3 mps 747 mmHg 77%
    15:00 +25°C° 0.6 mm 4 mps 747 mmHg 77%
    16:00 +25°C° 0.6 mm 4 mps 747 mmHg 77%
    17:00 +25°C° 0.6 mm 4 mps 747 mmHg 77%
    18:00 +22°C° 0.1 mm 4 mps 747 mmHg 80%
    19:00 +21°C° 0.1 mm 4 mps 746 mmHg 83%
    20:00 +20°C° 0.1 mm 3 mps 746 mmHg 86%
    21:00 +19°C° 0 mm 3 mps 746 mmHg 88%
    22:00 +18°C° 0 mm 3 mps 747 mmHg 91%
    23:00 +18°C° 0 mm 3 mps 747 mmHg 93%

    8 June, Monday

    Time Temperature Precipitation Wind Pressure Humidity
    00:00 +18°C° 0 mm 3 mps 747 mmHg 95%
    01:00 +17°C° 0 mm 3 mps 747 mmHg 96%
    02:00 +17°C° 0 mm 2 mps 747 mmHg 97%
    03:00 +17°C° 0 mm 2 mps 747 mmHg 97%
    04:00 +17°C° 0 mm 2 mps 747 mmHg 96%
    05:00 +17°C° 0 mm 2 mps 748 mmHg 96%
    06:00 +19°C° 0 mm 2 mps 748 mmHg 90%
    07:00 +20°C° 0 mm 3 mps 748 mmHg 85%
    08:00 +22°C° 0 mm 3 mps 748 mmHg 79%
    09:00 +25°C° 0 mm 3 mps 748 mmHg 72%
    10:00 +26°C° 0 mm 4 mps 748 mmHg 65%
    11:00 +28°C° 0 mm 4 mps 749 mmHg 58%
    12:00 +28°C° 0.1 mm 4 mps 748 mmHg 54%
    13:00 +29°C° 0.1 mm 5 mps 748 mmHg 51%
    14:00 +29°C° 0.1 mm 5 mps 748 mmHg 47%
    15:00 +29°C° 0 mm 4 mps 748 mmHg 51%
    16:00 +29°C° 0 mm 4 mps 748 mmHg 55%
    17:00 +29°C° 0 mm 4 mps 748 mmHg 58%
    18:00 +27°C° 0.3 mm 3 mps 748 mmHg 68%
    19:00 +25°C° 0.3 mm 3 mps 748 mmHg 77%
    20:00 +22°C° 0.3 mm 3 mps 748 mmHg 87%
    21:00 +21°C° 0.1 mm 3 mps 748 mmHg 89%
    22:00 +20°C° 0.1 mm 3 mps 748 mmHg 92%
    23:00 +20°C° 0.1 mm 3 mps 748 mmHg 94%
    Show more